Time,TemperatureF,DewpointF,PressureIn,WindDirection,WindDirectionDegrees,WindSpeedMPH,WindSpeedGustMPH,Humidity,HourlyPrecipIn,Conditions,Clouds,dailyrainin,SoftwareType,DateUTC
2013-11-08 00:23:00,28.0,26.0,30.14,WSW,237,0.0,2.0,93,0.00,,,0.00,,2013-11-08 06:23:00,
2013-11-08 00:42:00,28.0,26.0,30.14,West,266,0.0,1.0,93,0.00,,,0.00,,2013-11-08 06:42:00,
2013-11-08 00:52:00,28.0,27.0,30.14,West,267,0.0,2.0,94,0.00,,,0.00,,2013-11-08 06:52:00,
2013-11-08 01:12:00,27.0,26.0,30.14,West,267,0.0,0.0,94,0.00,,,0.00,,2013-11-08 07:12:00,
2013-11-08 01:22:00,27.0,25.0,30.14,West,267,0.0,0.0,93,0.00,,,0.00,,2013-11-08 07:22:00,
2013-11-08 01:42:00,26.0,25.0,30.14,West,267,0.0,0.0,94,0.00,,,0.00,,2013-11-08 07:42:00,
2013-11-08 01:52:00,26.0,25.0,30.14,West,267,0.0,0.0,94,0.00,,,0.00,,2013-11-08 07:52:00,
2013-11-08 02:12:00,26.0,25.0,30.14,West,267,0.0,0.0,94,0.00,,,0.00,,2013-11-08 08:12:00,
2013-11-08 02:22:00,26.0,25.0,30.14,West,267,0.0,0.0,94,0.00,,,0.00,,2013-11-08 08:22:00,
2013-11-08 02:42:00,25.0,24.0,30.14,West,267,0.0,0.0,94,0.00,,,0.00,,2013-11-08 08:42:00,
2013-11-08 02:52:00,25.0,24.0,30.14,West,267,0.0,2.0,94,0.00,,,0.00,,2013-11-08 08:52:00,
2013-11-08 03:22:00,25.0,24.0,30.14,West,267,0.0,1.0,95,0.00,,,0.00,,2013-11-08 09:22:00,
2013-11-08 03:43:00,25.0,24.0,30.15,West,267,1.0,2.0,95,0.00,,,0.00,,2013-11-08 09:43:00,
2013-11-08 03:54:00,25.0,24.0,30.15,WSW,250,0.0,3.0,95,0.00,,,0.00,,2013-11-08 09:54:00,
2013-11-08 04:12:00,25.0,24.0,30.16,WSW,252,0.0,2.0,95,0.00,,,0.00,,2013-11-08 10:12:00,
2013-11-08 04:23:00,26.0,25.0,30.16,WSW,252,0.0,2.0,95,0.00,,,0.00,,2013-11-08 10:23:00,
2013-11-08 04:42:00,26.0,25.0,30.16,WSW,252,1.0,3.0,95,0.00,,,0.00,,2013-11-08 10:42:00,
2013-11-08 04:53:00,26.0,25.0,30.16,WSW,252,0.0,1.0,95,0.00,,,0.00,,2013-11-08 10:53:00,
2013-11-08 05:22:00,26.0,25.0,30.16,WSW,252,0.0,0.0,95,0.00,,,0.00,,2013-11-08 11:22:00,
2013-11-08 05:42:00,26.0,25.0,30.16,WSW,252,0.0,0.0,95,0.00,,,0.00,,2013-11-08 11:42:00,
2013-11-08 05:52:00,26.0,25.0,30.16,WSW,252,0.0,0.0,95,0.00,,,0.00,,2013-11-08 11:52:00,
2013-11-08 06:11:00,26.0,25.0,30.15,WSW,252,0.0,0.0,95,0.00,,,0.00,,2013-11-08 12:11:00,
2013-11-08 06:21:00,26.0,25.0,30.15,WSW,252,0.0,0.0,95,0.00,,,0.00,,2013-11-08 12:21:00,
2013-11-08 06:42:00,26.0,25.0,30.16,WSW,252,0.0,0.0,95,0.00,,,0.00,,2013-11-08 12:42:00,
2013-11-08 06:52:00,26.0,25.0,30.16,WSW,252,0.0,0.0,94,0.00,,,0.00,,2013-11-08 12:52:00,
2013-11-08 07:11:00,26.0,25.0,30.16,WSW,252,0.0,0.0,94,0.00,,,0.00,,2013-11-08 13:11:00,
2013-11-08 07:21:00,25.0,24.0,30.16,WSW,252,0.0,0.0,95,0.00,,,0.00,,2013-11-08 13:21:00,
2013-11-08 07:52:00,26.0,25.0,30.16,ESE,119,0.0,1.0,95,0.00,,,0.00,,2013-11-08 13:52:00,
2013-11-08 08:11:00,25.0,24.0,30.16,South,172,0.0,1.0,94,0.00,,,0.00,,2013-11-08 14:11:00,
2013-11-08 08:22:00,26.0,25.0,30.16,South,171,0.0,1.0,95,0.00,,,0.00,,2013-11-08 14:22:00,
2013-11-08 08:42:00,26.0,25.0,30.17,SSW,201,1.0,3.0,95,0.00,,,0.00,,2013-11-08 14:42:00,
2013-11-08 08:52:00,27.0,26.0,30.17,South,170,0.0,2.0,95,0.00,,,0.00,,2013-11-08 14:52:00,
2013-11-08 09:11:00,27.0,26.0,30.17,SSE,160,0.0,0.0,95,0.00,,,0.00,,2013-11-08 15:11:00,
2013-11-08 09:22:00,27.0,26.0,30.17,SW,215,1.0,3.0,95,0.00,,,0.00,,2013-11-08 15:22:00,
2013-11-08 09:43:00,28.0,27.0,30.16,SE,142,1.0,4.0,95,0.00,,,0.00,,2013-11-08 15:43:00,
2013-11-08 09:53:00,28.0,27.0,30.16,SE,146,0.0,3.0,95,0.00,,,0.00,,2013-11-08 15:53:00,
2013-11-08 10:13:00,28.0,27.0,30.15,SSE,151,1.0,3.0,95,0.00,,,0.00,,2013-11-08 16:13:00,
2013-11-08 10:23:00,29.0,28.0,30.15,SE,139,2.0,4.0,96,0.00,,,0.00,,2013-11-08 16:23:00,
2013-11-08 10:42:00,29.0,28.0,30.14,SE,128,1.0,3.0,96,0.00,,,0.00,,2013-11-08 16:42:00,
2013-11-08 10:53:00,30.0,29.0,30.13,SE,126,1.0,7.0,96,0.00,,,0.00,,2013-11-08 16:53:00,
2013-11-08 11:22:00,31.0,30.0,30.12,SSE,147,2.0,6.0,96,0.00,,,0.00,,2013-11-08 17:22:00,
2013-11-08 11:43:00,32.0,31.0,30.11,ESE,107,2.0,4.0,96,0.00,,,0.00,,2013-11-08 17:43:00,
2013-11-08 11:53:00,32.0,31.0,30.10,SSE,150,1.0,5.0,96,0.00,,,0.00,,2013-11-08 17:53:00,
2013-11-08 12:22:00,33.0,32.0,30.08,SE,137,3.0,7.0,96,0.00,,,0.00,,2013-11-08 18:22:00,
2013-11-08 12:43:00,33.0,32.0,30.07,SSE,162,2.0,5.0,96,0.00,,,0.00,,2013-11-08 18:43:00,
2013-11-08 12:52:00,34.0,33.0,30.06,SSW,194,2.0,7.0,96,0.00,,,0.00,,2013-11-08 18:52:00,
2013-11-08 13:12:00,34.0,33.0,30.06,ESE,115,2.0,6.0,95,0.01,,,0.01,,2013-11-08 19:12:00,
2013-11-08 13:22:00,35.0,33.0,30.04,SE,133,2.0,7.0,94,0.01,,,0.01,,2013-11-08 19:22:00,
2013-11-08 13:42:00,36.0,34.0,30.04,SE,128,3.0,6.0,92,0.01,,,0.01,,2013-11-08 19:42:00,
2013-11-08 13:52:00,36.0,33.0,30.03,East,99,3.0,7.0,90,0.01,,,0.01,,2013-11-08 19:52:00,
2013-11-08 14:12:00,37.0,34.0,30.02,SE,126,3.0,7.0,89,0.00,,,0.01,,2013-11-08 20:12:00,
2013-11-08 14:22:00,37.0,34.0,30.01,SSE,148,3.0,8.0,87,0.00,,,0.01,,2013-11-08 20:22:00,
2013-11-08 14:42:00,37.0,33.0,30.01,South,170,2.0,8.0,85,0.00,,,0.01,,2013-11-08 20:42:00,
2013-11-08 14:53:00,38.0,34.0,30.01,SE,132,3.0,10.0,85,0.00,,,0.01,,2013-11-08 20:53:00,
2013-11-08 15:12:00,38.0,33.0,29.98,ESE,113,3.0,7.0,83,0.00,,,0.01,,2013-11-08 21:12:00,
2013-11-08 15:22:00,38.0,33.0,29.96,SSE,152,3.0,10.0,81,0.00,,,0.01,,2013-11-08 21:22:00,
2013-11-08 15:44:00,38.0,32.0,29.96,SE,138,4.0,10.0,80,0.00,,,0.01,,2013-11-08 21:44:00,
2013-11-08 15:54:00,38.0,32.0,29.95,ESE,122,3.0,10.0,80,0.00,,,0.01,,2013-11-08 21:54:00,
2013-11-08 16:13:00,38.0,32.0,29.94,SSE,155,4.0,11.0,80,0.00,,,0.01,,2013-11-08 22:13:00,
2013-11-08 16:24:00,38.0,32.0,29.93,ESE,115,4.0,10.0,80,0.00,,,0.01,,2013-11-08 22:24:00,
2013-11-08 16:43:00,38.0,32.0,29.92,SE,131,5.0,10.0,80,0.00,,,0.01,,2013-11-08 22:43:00,
2013-11-08 16:53:00,38.0,32.0,29.91,SE,134,3.0,11.0,80,0.00,,,0.01,,2013-11-08 22:53:00,
2013-11-08 17:12:00,38.0,33.0,29.90,SSE,157,4.0,9.0,81,0.00,,,0.01,,2013-11-08 23:12:00,
2013-11-08 17:22:00,38.0,32.0,29.90,SE,127,4.0,8.0,80,0.00,,,0.01,,2013-11-08 23:22:00,
2013-11-08 17:43:00,38.0,33.0,29.89,SE,130,3.0,8.0,81,0.00,,,0.01,,2013-11-08 23:43:00,
2013-11-08 17:53:00,38.0,33.0,29.88,SE,132,7.0,11.0,81,0.00,,,0.01,,2013-11-08 23:53:00,
2013-11-08 18:12:00,38.0,33.0,29.87,SE,138,4.0,12.0,81,0.00,,,0.01,,2013-11-09 00:12:00,
2013-11-08 18:22:00,38.0,32.0,29.87,SE,137,5.0,12.0,80,0.00,,,0.01,,2013-11-09 00:22:00,
2013-11-08 18:52:00,39.0,33.0,29.87,SSE,161,6.0,13.0,79,0.00,,,0.01,,2013-11-09 00:52:00,
2013-11-08 19:11:00,39.0,33.0,29.86,SE,130,5.0,17.0,78,0.00,,,0.01,,2013-11-09 01:11:00,
2013-11-08 19:22:00,39.0,33.0,29.84,SE,142,6.0,13.0,78,0.00,,,0.01,,2013-11-09 01:22:00,
2013-11-08 19:42:00,39.0,33.0,29.84,SSE,157,6.0,12.0,78,0.00,,,0.01,,2013-11-09 01:42:00,
2013-11-08 19:52:00,40.0,33.0,29.83,SE,126,5.0,12.0,77,0.00,,,0.01,,2013-11-09 01:52:00,
2013-11-08 20:12:00,40.0,33.0,29.82,SE,132,5.0,11.0,76,0.00,,,0.01,,2013-11-09 02:12:00,
2013-11-08 20:22:00,40.0,33.0,29.82,SE,124,6.0,19.0,75,0.00,,,0.01,,2013-11-09 02:22:00,
2013-11-08 20:42:00,40.0,33.0,29.81,ENE,71,6.0,14.0,76,0.00,,,0.01,,2013-11-09 02:42:00,
2013-11-08 20:52:00,40.0,33.0,29.81,SE,135,5.0,12.0,75,0.00,,,0.01,,2013-11-09 02:52:00,
2013-11-08 21:22:00,40.0,34.0,29.78,SE,140,5.0,11.0,79,0.00,,,0.01,,2013-11-09 03:22:00,
2013-11-08 21:44:00,39.0,34.0,29.76,SE,124,8.0,13.0,83,0.01,,,0.02,,2013-11-09 03:44:00,
2013-11-08 21:54:00,38.0,34.0,29.75,SE,138,5.0,11.0,87,0.02,,,0.03,,2013-11-09 03:54:00,
2013-11-08 22:23:00,38.0,35.0,29.73,SSE,147,4.0,10.0,90,0.06,,,0.07,,2013-11-09 04:23:00,
2013-11-08 22:42:00,38.0,36.0,29.71,ESE,121,5.0,13.0,91,0.07,,,0.09,,2013-11-09 04:42:00,
2013-11-08 22:53:00,38.0,36.0,29.71,SE,132,5.0,10.0,92,0.08,,,0.11,,2013-11-09 04:53:00,
2013-11-08 23:13:00,38.0,36.0,29.69,SE,127,7.0,14.0,92,0.09,,,0.14,,2013-11-09 05:13:00,
2013-11-08 23:23:00,38.0,36.0,29.67,SSE,147,5.0,14.0,92,0.10,,,0.17,,2013-11-09 05:23:00,
2013-11-08 23:43:00,38.0,36.0,29.66,SSE,155,5.0,12.0,92,0.09,,,0.18,,2013-11-09 05:43:00,
2013-11-08 23:53:00,39.0,37.0,29.66,SSW,192,3.0,13.0,93,0.08,,,0.19,,2013-11-09 05:53:00,